IW9CTJ-13 Weather Reports


time (UTC)temp
C
wind
direction
speed
KPH
gust
KPH
rain 1hr
cm
rain 24hr
cm
rain mn
cm
humidity
%
barometer
mb
20260508014532 17 175 0.0 0.0 0.00 0.00 0.00 84 1009.1
20260508013032 17 42 0.0 0.0 0.00 0.00 0.00 83 1009.0
20260508011530 17 42 0.0 0.0 0.00 0.00 0.00 82 1009.2
20260508010023 17 42 0.0 0.0 0.00 0.00 0.00 79 1009.4
20260508004537 17 45 0.0 0.0 0.00 0.00 0.00 78 1009.8
20260508003021 17 45 0.0 0.0 0.00 0.00 0.00 78 1009.8
20260508001530 17 286 0.0 0.0 0.00 0.00 0.00 78 1010.1
20260508000014 17 292 0.0 0.0 0.00 0.00 0.00 78 1010.7
20260507234513 17 260 0.0 0.0 0.00 0.00 0.00 79 1010.7
20260507233012 17 272 0.0 0.0 0.00 0.00 0.00 79 1010.9
20260507231512 17 59 0.0 0.0 0.00 0.00 0.00 81 1011.0
20260507230012 17 59 0.0 0.0 0.00 0.00 0.00 81 1011.7
20260507224513 17 59 0.0 0.0 0.00 0.00 0.00 82 1011.5
20260507223010 18 59 0.0 0.0 0.00 0.00 0.00 82 1011.7
20260507221507 18 59 0.0 1.6 0.00 0.00 0.00 81 1011.3
20260507220004 18 42 0.0 1.6 0.00 0.00 0.00 80 1010.6
20260507214501 18 53 0.0 1.6 0.00 0.00 0.00 81 1010.6
20260507213000 18 44 0.0 14.5 0.00 0.00 0.00 80 1010.8
20260507211501 18 334 8.0 16.1 0.00 0.00 0.00 80 1010.6
20260507210001 18 57 0.0 20.9 0.00 0.00 0.00 80 1010.6
20260507204603 18 53 9.7 22.5 0.00 0.00 0.00 80 1010.4
20260507203132 18 80 8.0 16.1 0.00 0.00 0.00 80 1010.8
20260507201559 18 33 4.8 22.5 0.00 0.00 0.00 80 1010.9
20260507194618 18 40 4.8 25.7 0.00 0.00 0.00 78 1010.3
20260507193101 18 44 8.0 17.7 0.00 0.00 0.00 79 1010.4
20260507191557 18 82 14.5 27.4 0.00 0.00 0.00 79 1010.1
20260507184557 18 42 8.0 24.1 0.00 0.00 0.00 79 1010.2
20260507183057 18 66 12.9 24.1 0.00 0.00 0.00 79 1010.0
20260507181556 18 46 11.3 20.9 0.00 0.00 0.00 79 1009.7
20260507180056 18 58 8.0 20.9 0.00 0.00 0.00 79 1009.8
20260507174601 18 71 12.9 30.6 0.00 0.00 0.00 79 1009.8
20260507173128 18 41 11.3 32.2 0.00 0.00 0.00 78 1009.4
20260507171554 18 25 9.7 24.1 0.00 0.00 0.00 78 1009.7
20260507170052 18 71 11.3 30.6 0.00 0.00 0.00 78 1009.8
20260507164552 18 9 12.9 27.4 0.00 0.00 0.00 78 1010.3
20260507163051 18 76 12.9 32.2 0.00 0.00 0.00 78 1010.0
20260507161554 18 28 16.1 33.8 0.00 0.00 0.00 78 1009.6
20260507160058 18 65 11.3 30.6 0.00 0.00 0.00 77 1009.7
20260507154549 18 57 24.1 38.6 0.00 0.00 0.00 77 1009.8
20260507153053 18 44 16.1 29.0 0.00 0.00 0.00 77 1010.0
20260507151547 18 69 14.5 33.8 0.00 0.00 0.00 76 1010.1
20260507150048 18 26 12.9 33.8 0.00 0.00 0.00 76 1010.1
20260507144550 18 40 16.1 33.8 0.00 0.00 0.00 75 1010.0
20260507143057 18 72 17.7 30.6 0.00 0.00 0.00 75 1009.9
20260507141555 18 30 14.5 33.8 0.00 0.00 0.00 75 1010.5
20260507140044 18 33 22.5 40.2 0.00 0.00 0.00 75 1010.3
20260507134546 18 51 14.5 40.2 0.00 0.00 0.00 73 1010.7
20260507133109 19 44 24.1 45.1 0.00 0.00 0.00 73 1010.7
20260507131546 19 78 20.9 41.8 0.00 0.00 0.00 70 1010.5
20260507130053 19 51 22.5 45.1 0.00 0.00 0.00 71 1011.2
20260507124542 19 57 25.7 41.8 0.00 0.00 0.00 70 1011.3
20260507123041 20 34 25.7 49.9 0.00 0.00 0.00 69 1011.2
20260507121541 20 20 17.7 38.6 0.00 0.00 0.00 67 1011.4
20260507120038 20 35 24.1 51.5 0.00 0.00 0.00 67 1011.5
20260507114547 20 63 27.4 48.3 0.00 0.00 0.00 68 1011.6
20260507113037 20 29 24.1 41.8 0.00 0.00 0.00 67 1011.2
20260507111534 20 53 20.9 45.1 0.00 0.00 0.00 67 1011.9
20260507110040 20 46 22.5 51.5 0.00 0.00 0.00 66 1012.2
20260507104533 20 49 22.5 43.5 0.00 0.00 0.00 66 1012.3
20260507103038 20 37 20.9 51.5 0.00 0.00 0.00 65 1012.6
20260507101537 20 40 30.6 48.3 0.00 0.00 0.00 65 1012.4
20260507100035 20 36 24.1 40.2 0.00 0.00 0.00 64 1012.5
20260507094536 20 49 17.7 43.5 0.00 0.00 0.00 62 1012.6
20260507093028 20 28 24.1 49.9 0.00 0.00 0.00 62 1012.7
20260507091532 20 65 22.5 43.5 0.00 0.00 0.00 65 1012.8
20260507090025 19 66 24.1 38.6 0.00 0.00 0.00 67 1012.9
20260507084522 19 52 16.1 46.7 0.00 0.00 0.00 69 1012.7
20260507083022 18 64 25.7 46.7 0.00 0.00 0.00 71 1012.7
20260507081523 19 63 20.9 43.5 0.00 0.00 0.00 70 1012.3
20260507080020 18 57 25.7 43.5 0.00 0.00 0.00 70 1012.3
20260507074518 18 42 20.9 43.5 0.00 0.00 0.00 73 1012.6
20260507073017 18 46 20.9 41.8 0.00 0.00 0.00 73 1012.6
20260507071519 18 21 19.3 40.2 0.00 0.00 0.00 74 1012.8
20260507070026 18 74 16.1 33.8 0.00 0.00 0.00 74 1012.8
20260507064515 18 76 16.1 32.2 0.00 0.00 0.00 76 1013.0
20260507063011 17 60 20.9 33.8 0.00 0.00 0.00 81 1013.0
20260507061509 17 30 17.7 32.2 0.00 0.00 0.00 84 1012.9
20260507060012 17 28 16.1 37.0 0.00 0.00 0.00 85 1013.1
20260507054505 17 66 19.3 32.2 0.00 0.00 0.00 85 1013.2
20260507053005 17 66 12.9 30.6 0.00 0.00 0.00 85 1013.1
20260507051503 17 68 12.9 22.5 0.00 0.00 0.00 85 1013.1
20260507050006 17 32 12.9 25.7 0.00 0.00 0.00 85 1013.0
20260507044628 16 41 19.3 29.0 0.00 0.00 0.00 84 1012.8
20260507043059 16 53 14.5 32.2 0.00 0.00 0.00 85 1012.6
20260507041557 16 44 16.1 27.4 0.00 0.00 0.00 84 1012.8
20260507040058 17 59 11.3 24.1 0.00 0.00 0.00 81 1012.7
20260507034554 17 58 6.4 17.7 0.00 0.00 0.00 80 1013.0
20260507033102 17 40 6.4 14.5 0.00 0.00 0.00 80 1013.2
20260507031558 17 75 0.0 1.6 0.00 0.00 0.00 79 1013.2
20260507030106 17 49 0.0 1.6 0.00 0.00 0.00 74 1013.3
20260507024606 17 82 0.0 20.9 0.00 0.00 0.00 74 1013.1
20260507023048 17 40 0.0 1.6 0.00 0.00 0.00 74 1012.7
20260507021554 17 75 3.2 14.5 0.00 0.00 0.00 70 1012.6
20260507020055 17 80 0.0 0.0 0.00 0.00 0.00 66 1012.6